User: anonymous   Login
Location: Hartman Creek State Park
(44.3257°N, 89.2134°W)
Time: 11:38:48
(UTC-06:00)
Language:

Terra - Orbit

View from above orbital plane
View from above orbital plane
View from above satellite
View from above satellite

Ground track
Ground track

The orbit data is extracted from the following two-line orbital elements,

1 25994U 99068A   15031.35954173  .00000409  00000-0  10078-3 0   643
2 25994 098.2016 107.8006 0001409 087.5117 272.6245 14.57120224804291
Epoch (UTC): 31 January 2015 08:37:44
Eccentricity: 0.0001409
inclination: 98.2016°
perigee height: 701 km
apogee height: 703 km
right ascension of ascending node: 107.8006°
argument of perigee: 87.5117°
revolutions per day: 14.57120224
mean anomaly at epoch: 272.6245°
orbit number at epoch: 80429

The dashed part of the orbit path shows where the satellite is in the earth's shadow,  

DLR